Flag for Germany Weather past 2 weeks in Friesoythe, Lower Saxony, Germany

Now
52 °F

Passing clouds.


Feels Like: 49 °F
Forecast: 47 / 59 °F
Wind: 8 mph from South

Location: Meppen-Mil

Current Time: Oct 24, 2014 at 10:01:06 AM

Latest Report: Oct 24, 2014 at 9:20 AM


Visibility: N/A

Pressure: 30.12 "Hg

Humidity: 82%

Dew point: 46 °F

Location of FriesoytheLocation

Historic Weather in Friesoythe — Graph

°F

Friesoythe temperature yesterday

Maximum temperature yesterday: 54 °F (at 2:20 PM)
Minimum temperature yesterday: 45 °F (at 2:20 AM)
Average temperature yesterday: 51 °F

Past Weeks' High & Low Weather Summary

 TemperatureHumidityPressure
High72 °F (Oct 19, 1:20 PM)100% (Oct 10, 11:20 PM)30.18 "Hg (Oct 10, 11:20 PM)
Low43 °F (Oct 11, 5:20 AM)56% (Oct 14, 1:20 PM)29.39 "Hg (Oct 21, 4:20 PM)
Average55 °F85%29.84 "Hg
* Reported Oct 9 8:20 AM — Oct 24 8:20 AM, Friesoythe, Weather by CustomWeather, © 2014

Note: Actual official high and low records may vary slightly from our data, if they occured in-between our weather recording intervals... More about our weather records

Advertising

Friesoythe weather history for previous 24 hours

 ConditionsComfort  
Time TempWeatherWind HumidityBarometerVisibility
8:20 AM
Oct 24
52 °FPassing clouds.8 mph82%30.09 "HgN/A
7:20 AM52 °FPassing clouds.7 mph82%30.09 "HgN/A
6:20 AM52 °FPassing clouds.7 mph82%30.12 "HgN/A
5:20 AM52 °FCool.6 mph82%30.12 "HgN/A
4:20 AM54 °FCool.6 mph82%30.12 "HgN/A
3:20 AM54 °FCool.6 mph82%30.12 "HgN/A
2:20 AM54 °FCool.5 mph82%30.12 "HgN/A
1:20 AM54 °FCool.5 mph82%30.12 "HgN/A
12:20 AM54 °FCool.6 mph82%30.12 "HgN/A
11:20 PM
Oct 23
54 °FCool.7 mph82%30.15 "HgN/A
10:20 PM54 °FCool.7 mph82%30.15 "HgN/A
9:20 PM54 °FCool.7 mph82%30.15 "HgN/A
8:20 PM54 °FCool.6 mph82%30.15 "HgN/A
7:20 PM54 °FCool.6 mph82%30.15 "HgN/A
6:20 PM54 °FCool.6 mph82%30.15 "HgN/A
5:20 PM54 °FCool.6 mph82%30.15 "HgN/A
4:20 PM54 °FPartly sunny.7 mph82%30.15 "HgN/A
3:20 PM54 °FPartly sunny.8 mph88%30.15 "Hg5 mi
2:48 PM54 °FBroken clouds.7 mph88%30.15 "Hg4 mi
2:20 PM54 °FFog.9 mph88%30.15 "Hg3 mi
1:20 PM52 °FFog.7 mph94%30.15 "Hg3 mi
12:50 PM52 °FFog.8 mph94%30.18 "Hg2 mi
12:20 PM50 °FDrizzle. Fog.7 mph94%30.18 "Hg1 mi
11:20 AM50 °FDrizzle. Fog.6 mph94%30.18 "Hg1 mi
10:20 AM50 °FFog.6 mph94%30.18 "Hg3 mi
Weather by CustomWeather, © 2014

See weather overviewHow to use our weather pages